TimeCDT,TemperatureF,Dew PointF,Humidity,Sea Level PressureIn,VisibilityMPH,Wind Direction,Wind SpeedMPH,Gust SpeedMPH,PrecipitationIn,Events,Conditions,WindDirDegrees,DateUTC
12:15 AM,40.6,36.5,85,29.87,7.0,East,11.5,-,N/A,,Clear,80,2013-04-08 05:15:00
12:35 AM,40.1,35.8,85,29.88,7.0,East,8.1,-,N/A,,Clear,80,2013-04-08 05:35:00
12:55 AM,40.1,35.6,84,29.88,10.0,East,8.1,-,N/A,,Clear,80,2013-04-08 05:55:00
1:15 AM,39.4,35.1,84,29.87,10.0,East,8.1,-,N/A,,Clear,90,2013-04-08 06:15:00
1:35 AM,39.4,35.1,84,29.86,10.0,ENE,11.5,16.1,N/A,,Clear,70,2013-04-08 06:35:00
1:55 AM,39.7,35.6,85,29.85,10.0,ENE,11.5,-,N/A,,Clear,70,2013-04-08 06:55:00
2:15 AM,40.1,35.6,84,29.84,10.0,East,12.7,-,N/A,,Clear,80,2013-04-08 07:15:00
2:35 AM,40.5,36.1,85,29.80,7.0,ENE,12.7,-,N/A,,Clear,70,2013-04-08 07:35:00
2:55 AM,41.2,36.7,84,29.79,7.0,East,13.8,-,N/A,,Clear,80,2013-04-08 07:55:00
3:15 AM,41.2,36.5,83,29.79,7.0,ENE,13.8,-,N/A,,Clear,70,2013-04-08 08:15:00
3:35 AM,41.2,36.3,83,29.78,7.0,East,11.5,-,N/A,,Clear,80,2013-04-08 08:35:00
3:55 AM,41.9,36.9,82,29.76,7.0,East,12.7,-,N/A,Thunderstorm,Scattered Clouds,80,2013-04-08 08:55:00
4:15 AM,43.7,38.5,82,29.74,7.0,East,12.7,-,N/A,,Scattered Clouds,90,2013-04-08 09:15:00
4:35 AM,43.7,38.5,82,29.74,7.0,East,13.8,-,N/A,,Mostly Cloudy,90,2013-04-08 09:35:00
4:55 AM,43.7,39.2,84,29.73,7.0,ESE,12.7,-,N/A,Rain-Thunderstorm,Light Thunderstorms and Rain,110,2013-04-08 09:55:00
5:15 AM,43.7,40.3,88,29.72,4.0,ESE,12.7,-,0.04,Rain,Heavy Rain,110,2013-04-08 10:15:00
5:35 AM,43.7,41.0,90,29.69,3.0,ESE,11.5,-,0.14,Rain,Heavy Rain,110,2013-04-08 10:35:00
5:55 AM,43.7,41.4,91,29.66,2.5,ENE,11.5,-,0.21,Rain,Rain,70,2013-04-08 10:55:00
6:15 AM,43.7,41.5,92,29.62,2.5,NNE,11.5,-,0.03,Rain,Rain,30,2013-04-08 11:15:00
6:35 AM,44.6,42.8,93,29.62,2.5,NE,10.4,-,N/A,Rain,Rain,40,2013-04-08 11:35:00
6:55 AM,45.0,43.0,93,29.62,2.0,NE,11.5,-,0.16,Rain,Heavy Rain,40,2013-04-08 11:55:00
7:15 AM,45.3,43.3,93,29.61,1.5,NNE,11.5,-,0.14,Rain,Heavy Rain,30,2013-04-08 12:15:00
7:35 AM,46.6,44.8,93,29.59,2.5,ENE,15.0,-,0.21,Rain,Heavy Rain,60,2013-04-08 12:35:00
7:55 AM,46.9,45.1,93,29.56,2.0,NNE,12.7,-,0.32,Rain,Rain,20,2013-04-08 12:55:00
8:15 AM,46.4,44.6,93,29.56,1.2,North,17.3,21.9,0.06,Rain,Rain,350,2013-04-08 13:15:00
8:55 AM,46.4,44.6,93,29.54,2.0,North,16.1,20.7,0.11,Rain,Light Rain,350,2013-04-08 13:55:00
9:15 AM,46.6,44.8,93,29.59,4.0,WNW,13.8,-,N/A,,Overcast,300,2013-04-08 14:15:00
9:35 AM,46.8,44.8,93,29.63,5.0,West,13.8,21.9,N/A,,Overcast,280,2013-04-08 14:35:00
9:55 AM,46.0,44.1,93,29.66,3.0,West,13.8,-,N/A,,Overcast,270,2013-04-08 14:55:00
10:15 AM,46.4,44.2,92,29.68,4.0,West,13.8,-,N/A,,Overcast,260,2013-04-08 15:15:00
10:35 AM,46.4,44.4,93,29.70,4.0,West,13.8,20.7,N/A,,Overcast,270,2013-04-08 15:35:00
10:55 AM,47.5,45.3,92,29.71,5.0,West,10.4,-,N/A,,Overcast,270,2013-04-08 15:55:00
11:15 AM,49.8,47.5,92,29.72,5.0,West,12.7,-,N/A,,Overcast,260,2013-04-08 16:15:00
11:35 AM,54.0,51.8,92,29.74,5.0,West,10.4,-,N/A,,Mostly Cloudy,260,2013-04-08 16:35:00
11:55 AM,54.0,50.7,89,29.74,7.0,West,9.2,-,N/A,,Mostly Cloudy,260,2013-04-08 16:55:00
12:15 PM,56.8,52.7,86,29.75,7.0,WSW,9.2,-,N/A,,Scattered Clouds,250,2013-04-08 17:15:00
12:35 PM,59.0,54.0,83,29.76,10.0,West,8.1,-,N/A,,Mostly Cloudy,270,2013-04-08 17:35:00
12:55 PM,59.0,53.8,83,29.77,10.0,West,10.4,16.1,N/A,,Mostly Cloudy,260,2013-04-08 17:55:00
1:15 PM,59.0,52.9,80,29.78,10.0,West,11.5,-,N/A,,Mostly Cloudy,280,2013-04-08 18:15:00
1:35 PM,62.1,53.4,73,29.77,10.0,West,9.2,-,N/A,,Mostly Cloudy,280,2013-04-08 18:35:00
1:55 PM,61.7,52.7,72,29.78,10.0,West,10.4,-,N/A,,Mostly Cloudy,270,2013-04-08 18:55:00
2:15 PM,61.9,52.5,71,29.78,10.0,West,11.5,-,N/A,,Scattered Clouds,260,2013-04-08 19:15:00
2:35 PM,64.0,53.4,68,29.78,10.0,West,8.1,-,N/A,,Clear,280,2013-04-08 19:35:00
2:55 PM,64.0,53.1,67,29.78,10.0,West,10.4,-,N/A,,Scattered Clouds,280,2013-04-08 19:55:00
3:15 PM,64.4,53.1,67,29.79,10.0,West,5.8,-,N/A,,Scattered Clouds,270,2013-04-08 20:15:00
3:35 PM,64.0,52.9,67,29.79,10.0,WNW,4.6,-,N/A,,Mostly Cloudy,290,2013-04-08 20:35:00
3:55 PM,64.0,52.3,66,29.80,10.0,Calm,Calm,-,N/A,,Mostly Cloudy,0,2013-04-08 20:55:00
4:15 PM,65.7,52.7,63,29.80,10.0,West,6.9,-,N/A,,Scattered Clouds,270,2013-04-08 21:15:00
4:35 PM,66.6,52.9,61,29.80,10.0,West,6.9,-,N/A,,Scattered Clouds,260,2013-04-08 21:35:00
4:55 PM,65.5,52.2,62,29.81,10.0,West,6.9,-,N/A,,Scattered Clouds,260,2013-04-08 21:55:00
5:15 PM,65.5,52.0,62,29.81,10.0,WSW,3.5,-,N/A,,Clear,240,2013-04-08 22:15:00
5:35 PM,66.6,52.5,61,29.82,10.0,NW,3.5,-,N/A,,Clear,320,2013-04-08 22:35:00
5:55 PM,66.2,51.8,60,29.83,10.0,Calm,Calm,-,N/A,,Clear,0,2013-04-08 22:55:00
6:15 PM,65.3,52.0,62,29.84,10.0,Calm,Calm,-,N/A,,Clear,0,2013-04-08 23:15:00
6:35 PM,65.3,52.5,63,29.84,10.0,Calm,Calm,-,N/A,,Clear,0,2013-04-08 23:35:00
6:55 PM,64.4,51.8,64,29.85,10.0,Calm,Calm,-,N/A,,Clear,0,2013-04-08 23:55:00
7:15 PM,64.0,52.7,67,29.86,10.0,Calm,Calm,-,N/A,,Clear,0,2013-04-09 00:15:00
7:35 PM,61.7,54.7,78,29.86,10.0,NE,5.8,-,N/A,,Scattered Clouds,50,2013-04-09 00:35:00
7:55 PM,59.0,53.6,82,29.87,10.0,ENE,5.8,-,N/A,,Clear,60,2013-04-09 00:55:00
8:15 PM,56.7,51.3,82,29.88,10.0,ENE,6.9,-,N/A,,Clear,60,2013-04-09 01:15:00
8:35 PM,59.0,54.0,83,29.89,10.0,ENE,9.2,-,N/A,,Clear,60,2013-04-09 01:35:00
8:55 PM,55.8,51.8,87,29.90,10.0,East,5.8,-,N/A,,Clear,80,2013-04-09 01:55:00
9:15 PM,54.0,50.7,89,29.91,7.0,NE,5.8,-,N/A,,Clear,50,2013-04-09 02:15:00
9:35 PM,54.0,50.9,89,29.91,7.0,ENE,6.9,-,N/A,,Clear,70,2013-04-09 02:35:00
9:55 PM,54.0,51.1,90,29.93,7.0,ENE,5.8,-,N/A,,Clear,60,2013-04-09 02:55:00
10:15 PM,51.4,49.1,92,29.93,7.0,NE,5.8,-,N/A,,Clear,50,2013-04-09 03:15:00
10:35 PM,49.6,47.5,92,29.93,5.0,NE,8.1,-,N/A,,Clear,40,2013-04-09 03:35:00
10:55 PM,51.8,50.0,94,29.94,7.0,NE,6.9,-,N/A,,Clear,50,2013-04-09 03:55:00
11:15 PM,49.6,47.3,92,29.95,7.0,ENE,6.9,-,N/A,,Clear,60,2013-04-09 04:15:00
11:35 PM,49.5,47.1,92,29.95,7.0,NE,8.1,-,N/A,,Clear,50,2013-04-09 04:35:00
11:55 PM,49.3,46.9,92,29.96,7.0,NE,8.1,-,N/A,,Clear,40,2013-04-09 04:55:00